• In Portugal
  • List of Countries
  • For 7 days
  • Water Temperature
  • Satellite Maps
  • Weather Map
  • Weather Widgets
  • user-avatar
    Login

    Hourly Weather Galata

    Today, 20 September, Thursday

    Time Temperature Precipitation Wind Pressure Humidity
    00:00 +16°C° 0 mm 2 mps 760 mmHg 78%
    01:00 +16°C° 0 mm 2 mps 760 mmHg 79%
    02:00 +16°C° 0 mm 2 mps 760 mmHg 80%
    03:00 +15°C° 0 mm 2 mps 760 mmHg 81%
    04:00 +14°C° 0 mm 3 mps 760 mmHg 81%
    05:00 +14°C° 0 mm 3 mps 760 mmHg 82%
    06:00 +16°C° 0 mm 3 mps 760 mmHg 77%
    07:00 +18°C° 0 mm 3 mps 760 mmHg 72%
    08:00 +19°C° 0 mm 4 mps 760 mmHg 66%
    09:00 +21°C° 0 mm 4 mps 760 mmHg 61%
    10:00 +23°C° 0 mm 5 mps 760 mmHg 56%
    11:00 +26°C° 0 mm 5 mps 760 mmHg 51%
    12:00 +26°C° 0 mm 5 mps 759 mmHg 50%
    13:00 +27°C° 0 mm 5 mps 759 mmHg 48%
    14:00 +28°C° 0 mm 5 mps 759 mmHg 46%
    15:00 +27°C° 0 mm 5 mps 759 mmHg 50%
    16:00 +26°C° 0 mm 5 mps 759 mmHg 53%
    17:00 +26°C° 0 mm 5 mps 758 mmHg 56%
    18:00 +23°C° 0 mm 5 mps 758 mmHg 65%
    19:00 +21°C° 0 mm 4 mps 758 mmHg 74%
    20:00 +19°C° 0 mm 4 mps 758 mmHg 83%
    21:00 +19°C° 0 mm 3 mps 758 mmHg 85%
    22:00 +19°C° 0 mm 3 mps 758 mmHg 87%
    23:00 +18°C° 0 mm 3 mps 758 mmHg 89%

    Tomorrow, 21 September, Friday

    Time Temperature Precipitation Wind Pressure Humidity
    00:00 +18°C° 0 mm 3 mps 758 mmHg 89%
    01:00 +18°C° 0 mm 3 mps 758 mmHg 89%
    02:00 +18°C° 0 mm 3 mps 758 mmHg 89%
    03:00 +17°C° 0 mm 3 mps 758 mmHg 89%
    04:00 +17°C° 0 mm 3 mps 758 mmHg 89%
    05:00 +17°C° 0 mm 3 mps 758 mmHg 89%
    06:00 +18°C° 0 mm 3 mps 758 mmHg 83%
    07:00 +19°C° 0 mm 3 mps 758 mmHg 76%
    08:00 +21°C° 0 mm 3 mps 758 mmHg 70%
    09:00 +23°C° 0 mm 4 mps 758 mmHg 61%
    10:00 +26°C° 0 mm 4 mps 758 mmHg 53%
    11:00 +28°C° 0 mm 4 mps 758 mmHg 44%
    12:00 +28°C° 0 mm 4 mps 758 mmHg 42%
    13:00 +29°C° 0 mm 4 mps 758 mmHg 41%
    14:00 +29°C° 0 mm 4 mps 757 mmHg 39%
    15:00 +28°C° 0 mm 4 mps 757 mmHg 43%
    16:00 +28°C° 0 mm 3 mps 757 mmHg 47%
    17:00 +27°C° 0 mm 3 mps 757 mmHg 51%
    18:00 +25°C° 0 mm 3 mps 757 mmHg 59%
    19:00 +22°C° 0 mm 3 mps 757 mmHg 67%
    20:00 +21°C° 0 mm 2 mps 757 mmHg 75%
    21:00 +20°C° 0 mm 2 mps 757 mmHg 76%
    22:00 +20°C° 0 mm 2 mps 757 mmHg 77%
    23:00 +21°C° 0 mm 1 mps 757 mmHg 79%

    Day after tomorrow, 22 September, Saturday

    Time Temperature Precipitation Wind Pressure Humidity
    00:00 +20°C° 0 mm 1 mps 757 mmHg 80%
    01:00 +20°C° 0 mm 1 mps 757 mmHg 80%
    02:00 +19°C° 0 mm 1 mps 757 mmHg 81%
    03:00 +19°C° 0 mm 1 mps 757 mmHg 81%
    04:00 +19°C° 0 mm 1 mps 757 mmHg 80%
    05:00 +19°C° 0 mm 1 mps 757 mmHg 80%
    06:00 +20°C° 0 mm 1 mps 757 mmHg 74%
    07:00 +22°C° 0 mm 1 mps 757 mmHg 69%
    08:00 +23°C° 0 mm 1 mps 757 mmHg 63%
    09:00 +25°C° 0 mm 1 mps 757 mmHg 55%
    10:00 +26°C° 0 mm 2 mps 757 mmHg 47%
    11:00 +28°C° 0 mm 2 mps 757 mmHg 39%
    12:00 +29°C° 0 mm 2 mps 757 mmHg 37%
    13:00 +29°C° 0 mm 2 mps 756 mmHg 35%
    14:00 +30°C° 0 mm 3 mps 756 mmHg 33%
    15:00 +29°C° 0 mm 3 mps 756 mmHg 37%
    16:00 +28°C° 0 mm 3 mps 756 mmHg 40%
    17:00 +28°C° 0 mm 3 mps 755 mmHg 43%
    18:00 +26°C° 0 mm 3 mps 756 mmHg 50%
    19:00 +24°C° 0 mm 2 mps 756 mmHg 57%
    20:00 +21°C° 0 mm 2 mps 756 mmHg 65%
    21:00 +21°C° 0 mm 2 mps 756 mmHg 66%
    22:00 +20°C° 0 mm 2 mps 756 mmHg 67%
    23:00 +20°C° 0 mm 3 mps 756 mmHg 69%

    23 September, Sunday

    Time Temperature Precipitation Wind Pressure Humidity
    00:00 +20°C° 0 mm 3 mps 756 mmHg 68%
    01:00 +20°C° 0 mm 3 mps 756 mmHg 66%
    02:00 +20°C° 0 mm 3 mps 756 mmHg 65%
    03:00 +20°C° 0 mm 4 mps 757 mmHg 62%
    04:00 +20°C° 0 mm 5 mps 757 mmHg 59%
    05:00 +20°C° 0 mm 5 mps 757 mmHg 55%
    06:00 +20°C° 0 mm 6 mps 758 mmHg 57%
    07:00 +20°C° 0 mm 7 mps 758 mmHg 58%
    08:00 +18°C° 0 mm 7 mps 759 mmHg 60%
    09:00 +21°C° 0 mm 7 mps 759 mmHg 54%
    10:00 +22°C° 0 mm 6 mps 760 mmHg 49%
    11:00 +23°C° 0 mm 5 mps 760 mmHg 43%
    12:00 +25°C° 0 mm 5 mps 760 mmHg 41%
    13:00 +25°C° 0 mm 4 mps 760 mmHg 39%
    14:00 +26°C° 0 mm 4 mps 760 mmHg 36%
    15:00 +26°C° 0 mm 4 mps 760 mmHg 37%
    16:00 +25°C° 0 mm 4 mps 760 mmHg 38%
    17:00 +25°C° 0 mm 4 mps 760 mmHg 39%
    18:00 +22°C° 0 mm 4 mps 760 mmHg 46%
    19:00 +21°C° 0 mm 4 mps 760 mmHg 53%
    20:00 +19°C° 0 mm 4 mps 761 mmHg 59%
    21:00 +19°C° 0 mm 3 mps 761 mmHg 61%
    22:00 +18°C° 0 mm 3 mps 761 mmHg 63%
    23:00 +18°C° 0 mm 3 mps 761 mmHg 65%

    24 September, Monday

    Time Temperature Precipitation Wind Pressure Humidity
    00:00 +18°C° 0 mm 3 mps 761 mmHg 67%
    01:00 +18°C° 0 mm 4 mps 760 mmHg 68%
    02:00 +18°C° 0 mm 4 mps 760 mmHg 70%
    03:00 +18°C° 0 mm 4 mps 759 mmHg 72%
    04:00 +18°C° 0 mm 4 mps 759 mmHg 75%
    05:00 +18°C° 0 mm 4 mps 758 mmHg 78%
    06:00 +19°C° 0 mm 5 mps 758 mmHg 74%
    07:00 +20°C° 0 mm 5 mps 757 mmHg 70%
    08:00 +21°C° 0 mm 6 mps 757 mmHg 66%
    09:00 +23°C° 0 mm 6 mps 757 mmHg 60%
    10:00 +24°C° 0 mm 6 mps 756 mmHg 54%
    11:00 +27°C° 0 mm 7 mps 756 mmHg 48%
    12:00 +28°C° 0 mm 7 mps 755 mmHg 45%
    13:00 +29°C° 0 mm 7 mps 754 mmHg 43%
    14:00 +30°C° 0 mm 7 mps 753 mmHg 40%
    15:00 +30°C° 0 mm 6 mps 753 mmHg 42%
    16:00 +30°C° 0 mm 6 mps 752 mmHg 44%
    17:00 +29°C° 0 mm 5 mps 752 mmHg 46%
    18:00 +28°C° 0 mm 5 mps 752 mmHg 51%
    19:00 +26°C° 0 mm 4 mps 753 mmHg 56%
    20:00 +23°C° 0 mm 4 mps 753 mmHg 61%
    21:00 +23°C° 0 mm 5 mps 753 mmHg 56%
    22:00 +23°C° 0 mm 5 mps 754 mmHg 51%
    23:00 +22°C° 0 mm 6 mps 754 mmHg 46%

    25 September, Tuesday

    Time Temperature Precipitation Wind Pressure Humidity
    00:00 +21°C° 0 mm 7 mps 755 mmHg 47%
    01:00 +20°C° 0 mm 8 mps 756 mmHg 48%
    02:00 +18°C° 0 mm 9 mps 757 mmHg 48%
    03:00 +17°C° 0 mm 8 mps 757 mmHg 48%
    04:00 +16°C° 0 mm 8 mps 758 mmHg 47%
    05:00 +16°C° 0 mm 7 mps 759 mmHg 46%
    06:00 +15°C° 0.1 mm 7 mps 759 mmHg 47%
    07:00 +15°C° 0.1 mm 6 mps 760 mmHg 48%
    08:00 +15°C° 0.1 mm 6 mps 760 mmHg 49%
    09:00 +15°C° 0.1 mm 5 mps 760 mmHg 48%
    10:00 +15°C° 0.1 mm 5 mps 761 mmHg 46%
    11:00 +15°C° 0.1 mm 5 mps 761 mmHg 44%
    12:00 +16°C° 0 mm 5 mps 761 mmHg 42%
    13:00 +16°C° 0 mm 5 mps 761 mmHg 39%
    14:00 +16°C° 0 mm 5 mps 761 mmHg 36%
    15:00 +17°C° 0.1 mm 4 mps 761 mmHg 38%
    16:00 +15°C° 0.1 mm 4 mps 762 mmHg 40%
    17:00 +15°C° 0.1 mm 4 mps 762 mmHg 42%
    18:00 +14°C° 0.1 mm 4 mps 762 mmHg 46%
    19:00 +14°C° 0.1 mm 5 mps 763 mmHg 49%
    20:00 +13°C° 0.1 mm 5 mps 763 mmHg 53%
    21:00 +13°C° 0 mm 5 mps 764 mmHg 53%
    22:00 +13°C° 0 mm 6 mps 764 mmHg 53%
    23:00 +12°C° 0 mm 7 mps 764 mmHg 54%
    Show more